[[{"header":{"parameterUnit":"m.s-1","parameterCategory":2,"la1":30.2991,"la2":30.254,"lo1":-89.0895,"lo2":-89.0444,"dy":0.0017,"dx":0.0017,"nx":28,"ny":28,"refTime":"2025-08-17T09:00:00:Z","depth":"0","parameterNumber":2,"parameterNumberName":"U-component_of_CURRENTS"},"data":[0,0,0,0,0,0,0,0,0,0,0,0,0,0,0,0,0,0,0,0,0,0,0,0,0,0,0,0,0,0,0,0,0,0,0,0,0,0,0,0,0,0,0,0,0,0,0,0,0,0,0,0,0,0,0,0,0,0,-0.1563,-0.1563,0,-0.1504,-0.1504,-0.1503,-0.1418,-0.1417,-0.1415,-0.1414,-0.1297,-0.1295,-0.1293,0,0,0,0,0,0,0,0,0,0,0,0,0,-0.1664,-0.1662,-0.1563,-0.1563,-0.1562,-0.1504,-0.1503,-0.1503,-0.1419,-0.1417,-0.1415,-0.1413,-0.1297,-0.1295,-0.1293,0,0,0,0,0,0,0,0,0,0,0,0,0,-0.1616,-0.1662,-0.1564,-0.1511,-0.1506,-0.1504,-0.1503,-0.1503,-0.1419,-0.1417,-0.1414,-0.1412,-0.1298,-0.1295,-0.1293,-0.1326,0,0,-0.1286,-0.1285,0,0,0,0,0,0,0,0,-0.1618,-0.1612,-0.152,-0.1515,-0.1509,-0.1465,-0.1496,-0.144,-0.142,-0.1454,-0.1414,-0.1411,-0.1348,-0.1341,-0.1339,-0.1321,-0.1316,-0.1285,-0.1284,-0.1283,-0.1282,0,0,0,0,0,0,0,-0.1622,-0.1615,-0.1542,-0.1519,-0.1513,-0.1511,-0.1502,-0.1486,-0.1416,-0.1451,-0.1444,-0.1436,-0.1345,-0.1342,-0.1335,-0.1314,-0.1285,-0.1283,-0.1282,-0.1281,-0.1372,-0.1376,0,0,0,0,0,0,-0.1625,-0.1618,-0.1544,-0.154,-0.1557,-0.1511,-0.15,-0.1483,-0.1417,-0.1404,-0.1438,-0.1432,-0.1347,-0.1338,-0.1331,-0.1399,-0.1283,-0.1281,-0.1279,-0.1369,-0.1373,-0.1378,0,0,0,0,0,0,-0.1627,-0.1619,-0.1546,-0.1577,-0.1567,-0.1511,-0.1493,-0.1483,-0.1467,-0.1407,-0.1393,-0.143,-0.1345,-0.1334,-0.1337,-0.1392,-0.128,-0.1277,-0.1364,-0.137,-0.1375,-0.1513,0,0,0,0,0,0,-0.163,-0.162,-0.161,-0.1576,-0.1565,-0.1555,-0.1495,-0.1483,-0.1465,-0.1457,-0.1397,-0.1384,-0.1342,-0.1341,-0.1335,-0.1386,-0.1275,-0.1359,-0.1367,-0.1374,-0.1504,-0.1523,-0.1539,0,0,0,0,0,-0.1634,-0.1622,-0.161,-0.1601,-0.1552,-0.1556,-0.1552,-0.1505,-0.1467,-0.1478,-0.1447,-0.1385,-0.1383,-0.1342,-0.1333,-0.1386,-0.1356,-0.1365,-0.1373,-0.1496,-0.1519,-0.1539,0,0,0,0,0,0,-0.1656,-0.1612,-0.1597,-0.157,-0.1572,-0.1541,-0.153,-0.1513,-0.1497,-0.1475,-0.1422,-0.141,-0.1441,-0.1403,-0.1359,-0.1441,-0.1365,-0.1373,-0.1462,-0.1483,-0.1501,-0.1496,-0.1273,0,0,0,0,0,-0.1661,-0.1637,-0.1619,-0.1601,-0.1597,-0.1571,-0.1563,-0.154,-0.1521,-0.1509,-0.1481,-0.1462,-0.1477,-0.1466,-0.1466,-0.1496,-0.1448,-0.1533,-0.1551,-0.1566,-0.1562,-0.1587,-0.1605,-0.1406,-0.1406,-0.1406,0,0,-0.1664,-0.1636,-0.1622,-0.1605,-0.1589,-0.1615,-0.1559,-0.1549,-0.1582,-0.1501,-0.1529,-0.1518,-0.1502,-0.1549,-0.1559,-0.1515,-0.1593,-0.1577,-0.1589,-0.1577,-0.1598,-0.1616,-0.1633,-0.1412,-0.1411,-0.141,0,0,-0.1666,-0.1636,-0.1625,-0.1639,-0.1626,-0.163,-0.1634,-0.1622,-0.1622,-0.1657,-0.1626,-0.1653,-0.1649,-0.1668,-0.1673,-0.1792,-0.1693,-0.1792,-0.1866,-0.1892,-0.1907,-0.192,-0.1851,-0.1857,-0.1794,-0.1794,-0.1795,0,-0.1675,-0.1658,-0.1631,-0.1645,-0.1661,-0.1646,-0.1675,-0.1696,-0.1696,-0.1711,-0.1679,-0.1731,-0.1717,-0.1793,-0.184,-0.1831,-0.1788,-0.1779,-0.1912,-0.1924,-0.1935,-0.1861,-0.1866,-0.1802,-0.1801,-0.18,-0.18,0,-0.1682,-0.1686,-0.1685,-0.1704,-0.1731,-0.1748,-0.1782,-0.1814,-0.1815,-0.1831,-0.1895,-0.1898,-0.1918,-0.1947,-0.1922,-0.2014,-0.1937,-0.1934,-0.1848,-0.1963,-0.1878,-0.188,-0.1813,-0.181,-0.1808,-0.1806,0,0,-0.1656,-0.1684,-0.1684,-0.1711,-0.1761,-0.178,-0.186,-0.1921,-0.196,-0.1993,-0.2042,-0.2113,-0.2092,-0.21,-0.2092,-0.2124,-0.2165,-0.2061,-0.2059,-0.1973,-0.2145,-0.2058,-0.205,-0.2181,-0.2183,-0.2185,-0.2041,0,-0.1672,-0.17,-0.1726,-0.1796,-0.1821,-0.187,-0.1951,-0.201,-0.2047,-0.2099,-0.213,-0.2169,-0.216,-0.2163,-0.2207,-0.2169,-0.2183,-0.2199,-0.2062,-0.2056,-0.1951,-0.2056,-0.1954,-0.1817,-0.2042,-0.2042,-0.2043,0,-0.1663,-0.169,-0.1738,-0.1834,-0.1851,-0.1907,-0.2009,-0.2078,-0.2163,-0.2188,-0.224,-0.2242,-0.2292,-0.227,-0.2268,-0.2269,-0.2222,-0.2194,-0.2188,-0.2058,-0.1976,-0.1748,-0.1811,-0.1805,-0.2045,-0.2045,-0.2045,0,-0.162,-0.1701,-0.1735,-0.1767,-0.1877,-0.192,-0.1986,-0.2085,-0.2136,-0.2223,-0.224,-0.2308,-0.2291,-0.2304,-0.2239,-0.2251,-0.2201,-0.2205,-0.2078,-0.2066,-0.1928,-0.1902,-0.1955,-0.2222,-0.2223,-0.2223,-0.2224,0,-0.1606,-0.1638,-0.1713,-0.1732,-0.1802,-0.189,-0.1967,-0.2044,-0.2138,-0.2184,-0.2259,-0.2276,-0.2302,-0.2272,-0.2244,-0.2142,-0.2198,-0.2094,-0.2051,-0.197,-0.1951,-0.1895,-0.1921,-0.2218,-0.2219,-0.222,-0.2221,0,-0.1532,-0.1581,-0.1627,-0.1733,-0.1768,-0.1806,-0.1927,-0.1985,-0.2079,-0.2133,-0.2152,-0.2217,-0.2173,-0.2168,-0.2133,-0.2098,-0.2005,-0.1999,-0.1853,-0.1798,-0.1693,-0.173,-0.1707,-0.1657,-0.1838,-0.1836,-0.1834,0,-0.1495,-0.1497,-0.1586,-0.1611,-0.1651,-0.1728,-0.1786,-0.1923,-0.198,-0.2082,-0.2091,-0.2081,-0.2045,-0.1948,-0.1902,-0.1816,-0.1865,-0.1683,-0.1733,-0.1683,-0.1693,-0.1735,-0.1699,-0.1572,-0.1568,-0.1565,-0.1562,0,-0.1418,-0.1429,-0.1463,-0.151,-0.1562,-0.1631,-0.1718,-0.1757,-0.1903,-0.1937,-0.1945,-0.1919,-0.1837,-0.1715,-0.1629,-0.1583,-0.1653,-0.161,-0.1628,-0.1556,-0.1537,-0.1466,-0.1609,-0.1532,-0.1535,-0.1537,-0.1538,-0.154,-0.1341,-0.1335,-0.1362,-0.1402,-0.1462,-0.1509,-0.1524,-0.1609,-0.1652,-0.1665,-0.1742,-0.1654,-0.1615,-0.1475,-0.1418,-0.1317,-0.1405,-0.1298,-0.1353,-0.1404,-0.1369,-0.1409,-0.1261,-0.1262,-0.1263,-0.1264,-0.1265,0,-0.1237,-0.1236,-0.1262,-0.1299,-0.1311,-0.1385,-0.1461,-0.1448,-0.1429,-0.1421,-0.1394,-0.1364,-0.1261,-0.1234,-0.1164,-0.11,-0.1088,-0.1088,-0.1147,-0.1127,-0.1199,-0.1203,-0.0954,-0.0954,-0.0954,-0.0954,-0.0954,-0.0954,-0.118,-0.1149,-0.1161,-0.1132,-0.1159,-0.114,-0.1153,-0.1132,-0.1113,-0.1006,-0.096,-0.0925,-0.1013,-0.1198,-0.1117,-0.1043,-0.105,-0.0998,-0.1052,-0.1133,-0.1158,-0.1182,-0.1194,-0.0947,-0.0947,-0.0917,-0.0917,-0.0917]},{"header":{"parameterUnit":"m.s-1","parameterCategory":2,"la1":30.2991,"la2":30.254,"lo1":-89.0895,"lo2":-89.0444,"dy":0.0017,"dx":0.0017,"nx":28,"ny":28,"refTime":"2025-08-17T09:00:00:Z","depth":"0","parameterNumber":3,"parameterNumberName":"V-component_of_CURRENTS"},"data":[0,0,0,0,0,0,0,0,0,0,0,0,0,0,0,0,0,0,0,0,0,0,0,0,0,0,0,0,0,0,0,0,0,0,0,0,0,0,0,0,0,0,0,0,0,0,0,0,0,0,0,0,0,0,0,0,0,0,0.0381,0.0381,0,0.0402,0.0402,0.0402,0.0451,0.0452,0.0453,0.0454,0.0475,0.0474,0.0474,0,0,0,0,0,0,0,0,0,0,0,0,0,0.0226,0.023,0.0381,0.0381,0.0381,0.0402,0.0402,0.0402,0.045,0.0452,0.0453,0.0454,0.0475,0.0474,0.0474,0,0,0,0,0,0,0,0,0,0,0,0,0,0.0274,0.0231,0.038,0.0409,0.0412,0.0402,0.0402,0.0402,0.045,0.0452,0.0453,0.0455,0.0475,0.0474,0.0474,0.0435,0,0,0.0471,0.0471,0,0,0,0,0,0,0,0,0.0271,0.028,0.0404,0.0407,0.041,0.0426,0.0355,0.0414,0.045,0.0434,0.0454,0.0456,0.0458,0.0459,0.0457,0.0436,0.0437,0.0471,0.0471,0.0471,0.047,0,0,0,0,0,0,0,0.0268,0.0278,0.0388,0.0405,0.0408,0.0367,0.0377,0.0366,0.0435,0.0436,0.0439,0.0443,0.046,0.0458,0.0458,0.0438,0.0471,0.0471,0.047,0.047,0.0364,0.0361,0,0,0,0,0,0,0.0275,0.0276,0.0387,0.0388,0.0345,0.0369,0.038,0.0418,0.0436,0.044,0.0442,0.0446,0.0458,0.0459,0.0459,0.0384,0.0471,0.047,0.047,0.0366,0.0363,0.036,0,0,0,0,0,0,0.0273,0.0286,0.0386,0.0331,0.0341,0.0372,0.0413,0.0418,0.0416,0.0441,0.0446,0.0435,0.046,0.046,0.043,0.0387,0.047,0.0469,0.0369,0.0365,0.0362,0.0254,0,0,0,0,0,0,0.0269,0.0286,0.0305,0.0333,0.0345,0.0353,0.0411,0.0417,0.0416,0.0421,0.0436,0.044,0.0461,0.0431,0.0429,0.0387,0.0468,0.0372,0.0367,0.0363,0.026,0.0247,0.0235,0,0,0,0,0,0.0264,0.0274,0.0307,0.0319,0.0376,0.035,0.035,0.0376,0.0414,0.0386,0.0405,0.0439,0.0402,0.0428,0.0427,0.0384,0.0374,0.0368,0.0363,0.0266,0.025,0.0236,0,0,0,0,0,0,0.0208,0.0281,0.0317,0.035,0.0342,0.0359,0.034,0.0365,0.0358,0.0368,0.0406,0.0408,0.0367,0.0384,0.0413,0.0339,0.0394,0.0388,0.032,0.0305,0.0293,0.0291,0.0468,0,0,0,0,0,0.0209,0.0246,0.028,0.0299,0.0295,0.0318,0.0313,0.0326,0.033,0.0331,0.0344,0.0352,0.0341,0.0333,0.0325,0.0279,0.0339,0.0251,0.0238,0.0228,0.0224,0.0287,0.0281,0.0343,0.0343,0.0343,0,0,0.0196,0.0236,0.026,0.0289,0.0292,0.0245,0.0318,0.0295,0.0255,0.0331,0.028,0.0307,0.0319,0.0271,0.0254,0.0282,0.0237,0.0221,0.0212,0.0214,0.0281,0.0275,0.0271,0.0339,0.034,0.034,0,0,0.0139,0.0216,0.0202,0.0186,0.0182,0.0189,0.0178,0.0183,0.0186,0.0145,0.0192,0.0194,0.017,0.0175,0.0174,0.0086,0.0171,0.008,0.0012,0.0073,0.0069,0.0067,0.0125,0.0129,0.0072,0.0072,0.0072,0,0.0111,0.0112,0.018,0.0128,0.0105,0.0155,0.0088,0.0082,0.0074,0.0082,0.011,0.0116,0.0122,0.009,0.0053,0.0058,0.0115,0.007,0.006,0.0059,0.0058,0.0119,0.0125,0.0066,0.0067,0.0067,0.0068,0,0.0024,0.0008,-0.0018,-0.0043,-0.0065,-0.0117,-0.0112,-0.0126,-0.0097,-0.0077,-0.0081,-0.0053,-0.0035,-0.0046,-0.003,-0.0044,0.0004,0.0042,0.0105,0.0046,0.0113,0.0121,0.0058,0.006,0.0062,0.0063,0,0,0.0002,-0.0063,-0.0074,-0.0123,-0.0158,-0.0186,-0.0244,-0.0264,-0.0262,-0.0254,-0.0242,-0.0266,-0.0191,-0.0187,-0.0148,-0.0112,-0.0082,-0.0049,-0.0043,0.0021,0.0061,0.0088,0.01,-0.0031,-0.003,-0.003,0.0107,0,-0.0099,-0.0226,-0.022,-0.0348,-0.0419,-0.0388,-0.0434,-0.0433,-0.0396,-0.0371,-0.0309,-0.029,-0.0263,-0.0233,-0.02,-0.0098,-0.0065,-0.0123,0.0098,0.0104,0.0146,0.0109,0.0151,0.0276,0.0115,0.0117,0.0118,0,-0.0191,-0.0266,-0.0409,-0.0484,-0.0504,-0.0558,-0.0566,-0.06,-0.0542,-0.0498,-0.0443,-0.0366,-0.0325,-0.0276,-0.0142,-0.0171,-0.0081,0.0,0.0009,0.008,0.0146,0.0309,0.0297,0.0451,0.0131,0.013,0.0129,0,-0.0254,-0.0387,-0.0498,-0.0538,-0.062,-0.0647,-0.0664,-0.0631,-0.0631,-0.0556,-0.051,-0.0429,-0.0362,-0.025,-0.0107,-0.0109,0.0071,0.0101,0.0207,0.0211,0.0311,0.0322,0.0485,0.019,0.019,0.019,0.0189,0,-0.0358,-0.0444,-0.0535,-0.0606,-0.0699,-0.0711,-0.0753,-0.0737,-0.0691,-0.067,-0.057,-0.0513,-0.0347,-0.0222,-0.0105,0.0075,0.0077,0.0191,0.0245,0.0271,0.0276,0.0466,0.0522,0.0195,0.0194,0.0193,0.0192,0,-0.0414,-0.0483,-0.0617,-0.0718,-0.0742,-0.0799,-0.0826,-0.0838,-0.0776,-0.0737,-0.0713,-0.056,-0.0385,-0.0222,-0.001,0.0089,0.0352,0.0309,0.0321,0.0372,0.0602,0.0647,0.0852,0.0946,0.0457,0.0459,0.046,0,-0.0453,-0.0536,-0.0687,-0.0755,-0.0805,-0.0876,-0.0912,-0.089,-0.0892,-0.0762,-0.0747,-0.056,-0.0421,-0.0104,0.011,0.0336,0.0439,0.0496,0.0481,0.0616,0.0708,0.0735,0.0801,0.0578,0.058,0.0581,0.0583,0,-0.0526,-0.0577,-0.0683,-0.0831,-0.0907,-0.0983,-0.1026,-0.1043,-0.0988,-0.0905,-0.0762,-0.0626,-0.0309,-0.0017,0.0264,0.0398,0.0616,0.0537,0.0692,0.0817,0.0846,0.0962,0.0483,0.0598,0.0596,0.0595,0.0594,0.0594,-0.055,-0.0636,-0.0771,-0.0899,-0.0991,-0.1071,-0.1109,-0.1116,-0.1082,-0.0934,-0.0785,-0.0491,-0.0108,0.031,0.0454,0.0798,0.0759,0.0911,0.0958,0.0974,0.1052,0.0588,0.0747,0.0747,0.0746,0.0745,0.0745,0,-0.0589,-0.0686,-0.082,-0.0974,-0.1066,-0.11,-0.1167,-0.1161,-0.1107,-0.09,-0.0705,-0.013,0.0237,0.0593,0.1028,0.1216,0.1258,0.1314,0.1382,0.1432,0.1054,0.1045,0.1258,0.1258,0.1257,0.1257,0.1257,0.1257,-0.0616,-0.0747,-0.083,-0.0999,-0.1086,-0.1168,-0.1198,-0.1159,-0.1032,-0.0669,-0.0276,0.0018,0.0566,0.1188,0.1587,0.1622,0.1801,0.1773,0.1865,0.162,0.1586,0.1554,0.1562,0.1879,0.188,0.2245,0.2249,0.2251]}],[{"header":{"parameterUnit":"m.s-1","parameterCategory":2,"la1":30.2991,"la2":30.254,"lo1":-89.0895,"lo2":-89.0444,"dy":0.0017,"dx":0.0017,"nx":28,"ny":28,"refTime":"2025-08-17T09:00:00:Z","depth":"2","parameterNumber":2,"parameterNumberName":"U-component_of_CURRENTS"},"data":[0,0,0,0,0,0,0,0,0,0,0,0,0,0,0,0,0,0,0,0,0,0,0,0,0,0,0,0,0,0,0,0,0,0,0,0,0,0,0,0,0,0,0,0,0,0,0,0,0,0,0,0,0,0,0,0,0,0,-0.2271,-0.2273,0,-0.2392,-0.2393,-0.2394,-0.2401,-0.24,-0.2399,-0.2398,-0.244,-0.2442,-0.2444,0,0,0,0,0,0,0,0,0,0,0,0,0,-0.2027,-0.2031,-0.2271,-0.2273,-0.2275,-0.2392,-0.2393,-0.2394,-0.2401,-0.24,-0.2399,-0.2398,-0.2439,-0.2441,-0.2444,0,0,0,0,0,0,0,0,0,0,0,0,0,-0.2135,-0.2033,-0.2271,-0.2296,-0.23,-0.2392,-0.2393,-0.2394,-0.2401,-0.24,-0.2399,-0.2397,-0.2438,-0.2441,-0.2444,-0.2491,0,0,-0.2453,-0.2455,0,0,0,0,0,0,0,0,-0.2129,-0.2143,-0.229,-0.2294,-0.2299,-0.2384,-0.2323,-0.2424,-0.2402,-0.2358,-0.2398,-0.2397,-0.2418,-0.2423,-0.2443,-0.2493,-0.2495,-0.2453,-0.2455,-0.2457,-0.2457,0,0,0,0,0,0,0,-0.2121,-0.2138,-0.2314,-0.2293,-0.2298,-0.2295,-0.2308,-0.2342,-0.2389,-0.2361,-0.2363,-0.2385,-0.2419,-0.244,-0.2444,-0.2495,-0.2453,-0.2456,-0.2458,-0.2459,-0.2655,-0.2659,0,0,0,0,0,0,-0.2119,-0.2132,-0.231,-0.2318,-0.2214,-0.2301,-0.2316,-0.2354,-0.2391,-0.2397,-0.2386,-0.2385,-0.2436,-0.244,-0.2445,-0.2519,-0.2457,-0.2459,-0.2461,-0.2652,-0.2656,-0.266,0,0,0,0,0,0,-0.2114,-0.2135,-0.2305,-0.2229,-0.2252,-0.2307,-0.235,-0.2358,-0.2395,-0.2411,-0.2414,-0.2418,-0.2435,-0.2441,-0.2523,-0.2519,-0.2461,-0.2463,-0.2648,-0.2653,-0.2658,-0.2656,0,0,0,0,0,0,-0.2107,-0.2133,-0.2158,-0.223,-0.2256,-0.2361,-0.2352,-0.2361,-0.2412,-0.2412,-0.244,-0.2441,-0.2434,-0.2519,-0.2526,-0.2522,-0.2466,-0.2644,-0.265,-0.2656,-0.2651,-0.266,-0.2668,0,0,0,0,0,-0.2098,-0.2141,-0.2159,-0.218,-0.2291,-0.2362,-0.2375,-0.2405,-0.2415,-0.2433,-0.2486,-0.2441,-0.2563,-0.2526,-0.2533,-0.2529,-0.2641,-0.2649,-0.2656,-0.2648,-0.2658,-0.2667,0,0,0,0,0,0,-0.2049,-0.2149,-0.2169,-0.224,-0.2297,-0.2365,-0.2399,-0.2424,-0.2481,-0.2501,-0.25,-0.2507,-0.2571,-0.258,-0.2538,-0.2615,-0.2589,-0.2599,-0.2581,-0.2591,-0.2599,-0.2552,-0.2468,0,0,0,0,0,-0.2053,-0.2111,-0.2193,-0.2249,-0.2286,-0.2349,-0.2384,-0.242,-0.2482,-0.2506,-0.2534,-0.2577,-0.2609,-0.2625,-0.2665,-0.2716,-0.2657,-0.2721,-0.2729,-0.2735,-0.271,-0.2633,-0.2628,-0.2685,-0.2685,-0.2685,0,0,-0.2054,-0.2114,-0.2148,-0.2243,-0.2296,-0.2342,-0.2366,-0.2447,-0.2489,-0.2504,-0.2581,-0.2614,-0.2638,-0.2691,-0.2718,-0.2694,-0.2698,-0.2745,-0.2749,-0.2719,-0.2639,-0.2632,-0.2626,-0.2691,-0.269,-0.2689,0,0,-0.2069,-0.2139,-0.2184,-0.2224,-0.2317,-0.2368,-0.2395,-0.2491,-0.2536,-0.2632,-0.2642,-0.2684,-0.276,-0.2751,-0.2759,-0.2845,-0.2751,-0.2865,-0.2846,-0.2773,-0.2765,-0.2757,-0.2685,-0.2671,-0.2856,-0.2856,-0.2856,0,-0.2055,-0.2125,-0.2204,-0.2238,-0.227,-0.2376,-0.2412,-0.2485,-0.2594,-0.2626,-0.2663,-0.2749,-0.2774,-0.278,-0.2812,-0.2849,-0.2794,-0.2793,-0.2772,-0.2763,-0.2755,-0.2683,-0.2667,-0.2856,-0.2856,-0.2856,-0.2856,0,-0.2101,-0.2134,-0.2168,-0.2243,-0.2289,-0.2352,-0.245,-0.2523,-0.2608,-0.266,-0.2733,-0.2788,-0.281,-0.2836,-0.2851,-0.2811,-0.2787,-0.279,-0.272,-0.2746,-0.2673,-0.2656,-0.2858,-0.2857,-0.2857,-0.2857,0,0,-0.2117,-0.2183,-0.2194,-0.219,-0.2297,-0.2338,-0.2429,-0.2518,-0.2546,-0.2673,-0.268,-0.2774,-0.2791,-0.2803,-0.2818,-0.2768,-0.268,-0.2752,-0.2748,-0.2633,-0.2502,-0.2455,-0.2431,-0.266,-0.2657,-0.2655,-0.2475,0,-0.2123,-0.2154,-0.2206,-0.2228,-0.2241,-0.2331,-0.2389,-0.2479,-0.2562,-0.2604,-0.2678,-0.2711,-0.2783,-0.278,-0.2749,-0.2696,-0.2634,-0.2727,-0.2536,-0.253,-0.2443,-0.2409,-0.2274,-0.2099,-0.2458,-0.2455,-0.2453,0,-0.2147,-0.2155,-0.2169,-0.2181,-0.2204,-0.224,-0.2315,-0.2382,-0.2468,-0.2527,-0.257,-0.2619,-0.2612,-0.2657,-0.2562,-0.2613,-0.2554,-0.2514,-0.2506,-0.2439,-0.245,-0.2136,-0.2054,-0.2423,-0.2426,-0.2428,-0.243,0,-0.2092,-0.2125,-0.2127,-0.2132,-0.2182,-0.2209,-0.2268,-0.2354,-0.2387,-0.2455,-0.2451,-0.249,-0.248,-0.2434,-0.2425,-0.2461,-0.2286,-0.2318,-0.2218,-0.2214,-0.2048,-0.2034,-0.2204,-0.2204,-0.2204,-0.2205,-0.2205,0,-0.2047,-0.2047,-0.2097,-0.2079,-0.2094,-0.2153,-0.2174,-0.2245,-0.2286,-0.2297,-0.2392,-0.238,-0.2415,-0.2362,-0.2349,-0.2232,-0.2225,-0.218,-0.2149,-0.2053,-0.2042,-0.2293,-0.2306,-0.2198,-0.22,-0.2201,-0.2202,0,-0.1965,-0.2,-0.1981,-0.2025,-0.2052,-0.2059,-0.2115,-0.211,-0.2179,-0.2173,-0.2187,-0.2244,-0.2195,-0.2205,-0.2112,-0.2105,-0.2018,-0.1975,-0.1873,-0.1834,-0.2008,-0.2024,-0.1807,-0.1804,-0.1801,-0.1798,-0.1796,0,-0.1949,-0.192,-0.1937,-0.192,-0.1938,-0.1966,-0.1982,-0.2061,-0.2054,-0.21,-0.2076,-0.2048,-0.203,-0.1896,-0.1865,-0.1778,-0.1889,-0.1613,-0.1665,-0.1967,-0.1959,-0.198,-0.2,-0.1446,-0.1441,-0.1437,-0.1434,0,-0.1872,-0.1867,-0.1836,-0.181,-0.1805,-0.1801,-0.1836,-0.1817,-0.1905,-0.1898,-0.1889,-0.1867,-0.178,-0.1654,-0.1571,-0.1524,-0.1627,-0.153,-0.1806,-0.1597,-0.1618,-0.1615,-0.1646,-0.1399,-0.1402,-0.1405,-0.1407,-0.1408,-0.1843,-0.1774,-0.1722,-0.1679,-0.1674,-0.1642,-0.1597,-0.1633,-0.1617,-0.1611,-0.1683,-0.1611,-0.1594,-0.1391,-0.1305,-0.1244,-0.1365,-0.1326,-0.134,-0.1357,-0.1377,-0.1395,-0.1136,-0.1138,-0.114,-0.1141,-0.1142,0,-0.1767,-0.1676,-0.1608,-0.153,-0.1464,-0.1512,-0.1491,-0.1427,-0.1384,-0.1418,-0.1405,-0.1258,-0.1157,-0.1137,-0.0981,-0.0948,-0.0956,-0.0916,-0.0939,-0.0973,-0.1004,-0.1009,-0.0668,-0.0666,-0.0665,-0.0664,0,0,-0.1704,-0.1581,-0.1493,-0.1337,-0.1302,-0.1191,-0.1152,-0.1099,-0.1087,-0.104,-0.1021,-0.1113,-0.1111,-0.0908,-0.0846,-0.073,-0.0845,-0.0686,-0.1066,-0.1126,-0.1156,-0.1235,-0.128,0,0,0,0,0]},{"header":{"parameterUnit":"m.s-1","parameterCategory":2,"la1":30.2991,"la2":30.254,"lo1":-89.0895,"lo2":-89.0444,"dy":0.0017,"dx":0.0017,"nx":28,"ny":28,"refTime":"2025-08-17T09:00:00:Z","depth":"2","parameterNumber":3,"parameterNumberName":"V-component_of_CURRENTS"},"data":[0,0,0,0,0,0,0,0,0,0,0,0,0,0,0,0,0,0,0,0,0,0,0,0,0,0,0,0,0,0,0,0,0,0,0,0,0,0,0,0,0,0,0,0,0,0,0,0,0,0,0,0,0,0,0,0,0,0,-0.0075,-0.0075,0,-0.001,-0.0009,-0.0008,0.0069,0.007,0.0071,0.0071,0.0242,0.0245,0.0249,0,0,0,0,0,0,0,0,0,0,0,0,0,-0.0067,-0.0068,-0.0075,-0.0075,-0.0074,-0.001,-0.0009,-0.0007,0.0069,0.007,0.0071,0.0072,0.024,0.0245,0.0249,0,0,0,0,0,0,0,0,0,0,0,0,0,-0.004,-0.0068,-0.0075,-0.0031,-0.0027,-0.001,-0.0009,-0.0007,0.0069,0.007,0.0071,0.0072,0.0239,0.0244,0.025,0.026,0,0,0.0267,0.027,0,0,0,0,0,0,0,0,-0.0041,-0.004,-0.0038,-0.0034,-0.0029,0.0019,0.0056,0.0086,0.0068,0.0036,0.0071,0.0073,0.0174,0.0185,0.0198,0.0268,0.0275,0.0268,0.0271,0.0274,0.0275,0,0,0,0,0,0,0,-0.0043,-0.0042,-0.0045,-0.0038,-0.0033,0.0008,0.0013,0.0063,0.0102,0.0039,0.0044,0.0045,0.0178,0.0192,0.0203,0.0278,0.0268,0.0273,0.0276,0.0278,0.0479,0.0481,0,0,0,0,0,0,-0.0064,-0.0044,-0.0048,-0.0044,-0.0037,0.0006,0.0012,0.0006,0.0099,0.0113,0.0044,0.0048,0.0182,0.0196,0.0209,0.0308,0.0273,0.0279,0.0282,0.0477,0.048,0.0482,0,0,0,0,0,0,-0.0064,-0.0066,-0.005,-0.0045,-0.004,0.0004,-0.0004,0.0006,0.0037,0.0101,0.0118,0.0066,0.0184,0.0201,0.0294,0.0312,0.0281,0.0286,0.0475,0.0478,0.0481,0.0453,0,0,0,0,0,0,-0.0065,-0.0066,-0.0061,-0.0047,-0.0042,-0.0041,-0.0005,0.0006,0.0032,0.0039,0.0125,0.0141,0.0186,0.0285,0.0299,0.0319,0.0291,0.0472,0.0476,0.048,0.0451,0.0454,0.0457,0,0,0,0,0,-0.0065,-0.009,-0.0062,-0.0061,-0.0043,-0.0042,-0.0035,0.0004,0.0032,0.0039,0.0125,0.0139,0.0318,0.0292,0.0308,0.0329,0.0471,0.0475,0.0479,0.045,0.0454,0.0457,0,0,0,0,0,0,-0.0081,-0.0084,-0.0053,-0.0074,-0.0051,-0.003,-0.0025,0.0006,0.0075,0.0098,0.0167,0.0189,0.0276,0.0312,0.028,0.0402,0.0395,0.0403,0.0367,0.0372,0.0374,0.0355,0.0296,0,0,0,0,0,-0.0084,-0.0103,-0.0083,-0.0094,-0.0087,-0.0048,-0.0036,-0.0007,0.0044,0.0074,0.0143,0.0226,0.0302,0.0344,0.0411,0.0474,0.0463,0.05,0.0503,0.0505,0.0503,0.052,0.0523,0.0496,0.0496,0.0496,0,0,-0.0086,-0.0096,-0.0098,-0.0097,-0.0076,-0.0078,-0.0037,-0.0025,0.0003,0.0084,0.0159,0.0238,0.0323,0.0403,0.0443,0.0438,0.0501,0.0511,0.0511,0.0509,0.0525,0.0527,0.0529,0.0499,0.0499,0.0498,0,0,-0.0132,-0.0114,-0.0146,-0.0139,-0.012,-0.0092,-0.0089,-0.0045,0.0007,0.0084,0.016,0.0263,0.0357,0.0438,0.0485,0.0546,0.0516,0.0556,0.0554,0.057,0.0571,0.0572,0.0516,0.0513,0.0556,0.0556,0.0556,0,-0.0129,-0.0169,-0.0149,-0.0181,-0.0176,-0.0104,-0.012,-0.0063,0.0018,0.0071,0.0107,0.0298,0.0378,0.0485,0.0518,0.0551,0.0519,0.0527,0.0569,0.057,0.0571,0.0515,0.0511,0.0555,0.0555,0.0555,0.0556,0,-0.0205,-0.0218,-0.0241,-0.025,-0.0237,-0.0241,-0.0173,-0.0117,-0.0036,0.0034,0.0171,0.0302,0.0409,0.0459,0.0512,0.0576,0.0532,0.0564,0.0545,0.0571,0.0511,0.0507,0.0554,0.0554,0.0555,0.0555,0,0,-0.0243,-0.0283,-0.0287,-0.0295,-0.0271,-0.0272,-0.0216,-0.0142,-0.0103,0.0041,0.01,0.0296,0.0376,0.0437,0.0526,0.0567,0.0557,0.0563,0.0565,0.048,0.0518,0.0579,0.058,0.0577,0.0578,0.0578,0.0452,0,-0.0294,-0.037,-0.0369,-0.0396,-0.0415,-0.0344,-0.0306,-0.022,-0.0125,-0.0045,0.014,0.0236,0.0363,0.0412,0.0484,0.0537,0.0553,0.0584,0.053,0.0527,0.0558,0.0583,0.0578,0.0476,0.0449,0.0448,0.0448,0,-0.0369,-0.0404,-0.0458,-0.0463,-0.0463,-0.0462,-0.0395,-0.0351,-0.0214,-0.0136,0.0008,0.0125,0.0261,0.0341,0.0452,0.045,0.0483,0.0522,0.0518,0.0588,0.0586,0.046,0.047,0.0442,0.0442,0.0443,0.0443,0,-0.0417,-0.0464,-0.0506,-0.0513,-0.0506,-0.0496,-0.0469,-0.0369,-0.0326,-0.0201,-0.0167,0.0014,0.0089,0.0188,0.0347,0.0359,0.0418,0.0437,0.0516,0.0516,0.0514,0.0516,0.0487,0.0487,0.0487,0.0488,0.0488,0,-0.0485,-0.0517,-0.0533,-0.0558,-0.0581,-0.0554,-0.0549,-0.0492,-0.0421,-0.0375,-0.0215,-0.0143,0.0054,0.0149,0.0267,0.0395,0.0359,0.0512,0.051,0.0503,0.0506,0.0496,0.0499,0.0483,0.0484,0.0485,0.0486,0,-0.054,-0.0557,-0.0604,-0.0609,-0.0614,-0.0626,-0.0618,-0.0606,-0.054,-0.0495,-0.0459,-0.0295,-0.0161,0.0023,0.0159,0.0284,0.0399,0.0449,0.0407,0.0407,0.0473,0.0476,0.0464,0.0466,0.0467,0.0468,0.0469,0,-0.0582,-0.0614,-0.0646,-0.0672,-0.0681,-0.0696,-0.07,-0.0655,-0.064,-0.0558,-0.0535,-0.0407,-0.0259,-0.004,0.019,0.0363,0.0403,0.0446,0.0525,0.0483,0.0481,0.0482,0.0483,0.0461,0.0461,0.0462,0.0463,0,-0.0643,-0.0651,-0.0681,-0.0731,-0.0757,-0.0784,-0.0786,-0.0798,-0.0733,-0.0693,-0.0601,-0.0495,-0.0251,-0.0005,0.024,0.0357,0.0428,0.0466,0.0426,0.0508,0.0483,0.048,0.048,0.0468,0.0468,0.0467,0.0467,0.0467,-0.0678,-0.0707,-0.0742,-0.0784,-0.0822,-0.085,-0.0863,-0.085,-0.0827,-0.0738,-0.0637,-0.0455,-0.0235,0.0147,0.0322,0.0486,0.0485,0.0535,0.0531,0.0526,0.0591,0.0575,0.0582,0.0582,0.0582,0.0582,0.0582,0,-0.0717,-0.0749,-0.0793,-0.0839,-0.0878,-0.0883,-0.0902,-0.0885,-0.085,-0.073,-0.0602,-0.0337,-0.0069,0.015,0.0419,0.0574,0.0557,0.0592,0.0546,0.054,0.0535,0.0598,0.0591,0.0592,0.0592,0.0592,0,0,-0.0743,-0.0791,-0.0803,-0.0868,-0.0901,-0.0931,-0.0938,-0.0897,-0.081,-0.0681,-0.0531,-0.0312,-0.0046,0.0147,0.0343,0.0475,0.0463,0.0483,0.0464,0.0382,0.0375,0.0496,0.0588,0,0,0,0,0]}],[{"header":{"parameterUnit":"m.s-1","parameterCategory":2,"la1":30.2991,"la2":30.254,"lo1":-89.0895,"lo2":-89.0444,"dy":0.0017,"dx":0.0017,"nx":28,"ny":28,"refTime":"2025-08-17T09:00:00:Z","depth":"4","parameterNumber":2,"parameterNumberName":"U-component_of_CURRENTS"},"data":[0,0,0,0,0,0,0,0,0,0,0,0,0,0,0,0,0,0,0,0,0,0,0,0,0,0,0,0,0,0,0,0,0,0,0,0,0,0,0,0,0,0,0,0,0,0,0,0,0,0,0,0,0,0,0,0,0,0,-0.1177,-0.1178,0,-0.1266,-0.1267,-0.1268,-0.1305,-0.1306,-0.1306,-0.1306,-0.1357,-0.1358,-0.1359,0,0,0,0,0,0,0,0,0,0,0,0,0,-0.1055,-0.1057,-0.1177,-0.1178,-0.118,-0.1266,-0.1267,-0.1268,-0.1305,-0.1306,-0.1306,-0.1306,-0.1357,-0.1358,-0.1359,0,0,0,0,0,0,0,0,0,0,0,0,0,-0.1119,-0.1057,-0.1177,-0.1212,-0.1216,-0.1266,-0.1267,-0.1268,-0.1305,-0.1306,-0.1306,-0.1306,-0.1356,-0.1358,-0.136,-0.1366,0,0,-0.1365,-0.1366,0,0,0,0,0,0,0,0,-0.1115,-0.1123,-0.1205,-0.1209,-0.1214,-0.1278,-0.1243,-0.13,-0.1305,-0.1267,-0.1306,-0.1306,-0.1329,-0.1333,-0.1345,-0.1368,-0.137,-0.1365,-0.1366,-0.1367,-0.1368,0,0,0,0,0,0,0,-0.1111,-0.1119,-0.1208,-0.1207,-0.1212,-0.1229,-0.1237,-0.1254,-0.1292,-0.1271,-0.1275,-0.129,-0.1331,-0.1343,-0.1346,-0.1371,-0.1365,-0.1367,-0.1368,-0.1369,-0.1476,-0.1477,0,0,0,0,0,0,-0.1106,-0.1115,-0.1206,-0.1212,-0.1169,-0.1231,-0.1241,-0.1254,-0.1293,-0.1301,-0.129,-0.1292,-0.134,-0.1344,-0.1348,-0.1415,-0.1367,-0.1369,-0.137,-0.1474,-0.1476,-0.1478,0,0,0,0,0,0,-0.1103,-0.1113,-0.1202,-0.1168,-0.1181,-0.1233,-0.1248,-0.1256,-0.1291,-0.1309,-0.1315,-0.132,-0.134,-0.1346,-0.1389,-0.1415,-0.137,-0.1371,-0.1472,-0.1475,-0.1477,-0.1512,0,0,0,0,0,0,-0.1099,-0.1112,-0.1128,-0.1168,-0.1183,-0.1248,-0.1249,-0.1258,-0.1301,-0.1304,-0.1336,-0.134,-0.1341,-0.1386,-0.1391,-0.1417,-0.1373,-0.147,-0.1473,-0.1476,-0.1509,-0.1516,-0.1522,0,0,0,0,0,-0.1095,-0.1116,-0.1129,-0.114,-0.1202,-0.1249,-0.1259,-0.1293,-0.1302,-0.1324,-0.1349,-0.134,-0.141,-0.1389,-0.1394,-0.1421,-0.1468,-0.1472,-0.1476,-0.1506,-0.1514,-0.1521,0,0,0,0,0,0,-0.1073,-0.1124,-0.1138,-0.1174,-0.1216,-0.1257,-0.1286,-0.1307,-0.1344,-0.1352,-0.1361,-0.1367,-0.142,-0.1417,-0.1394,-0.1464,-0.1438,-0.1444,-0.146,-0.1468,-0.1474,-0.1456,-0.1374,0,0,0,0,0,-0.1075,-0.1104,-0.1154,-0.1183,-0.1208,-0.125,-0.1277,-0.1302,-0.1338,-0.1355,-0.1378,-0.1405,-0.1436,-0.1449,-0.1478,-0.1509,-0.1498,-0.1532,-0.1538,-0.1543,-0.1534,-0.1542,-0.1547,-0.1491,-0.1491,-0.1491,0,0,-0.1074,-0.1107,-0.1123,-0.1181,-0.1215,-0.126,-0.1267,-0.1317,-0.1353,-0.1354,-0.1411,-0.1434,-0.1454,-0.1498,-0.1519,-0.1498,-0.1559,-0.1548,-0.1552,-0.154,-0.1546,-0.1551,-0.1556,-0.1494,-0.1493,-0.1493,0,0,-0.1087,-0.1118,-0.115,-0.119,-0.1252,-0.128,-0.13,-0.1356,-0.1382,-0.1437,-0.1451,-0.1484,-0.1534,-0.1546,-0.1559,-0.1615,-0.1601,-0.1636,-0.1643,-0.1651,-0.1655,-0.1658,-0.1665,-0.1668,-0.1629,-0.1629,-0.1629,0,-0.1085,-0.1132,-0.1167,-0.1214,-0.1249,-0.1292,-0.1336,-0.1372,-0.1434,-0.1449,-0.1463,-0.1532,-0.1552,-0.1587,-0.1614,-0.1627,-0.1631,-0.1609,-0.1657,-0.1659,-0.1662,-0.1668,-0.1671,-0.1631,-0.1631,-0.1631,-0.163,0,-0.1121,-0.1169,-0.1194,-0.1262,-0.1303,-0.1349,-0.1403,-0.144,-0.1475,-0.1503,-0.1555,-0.1583,-0.1613,-0.1636,-0.1645,-0.1679,-0.1678,-0.167,-0.1629,-0.1669,-0.1674,-0.1677,-0.1634,-0.1633,-0.1633,-0.1632,0,0,-0.109,-0.1198,-0.121,-0.1246,-0.1333,-0.1364,-0.1424,-0.1477,-0.1505,-0.1557,-0.1591,-0.1644,-0.165,-0.1665,-0.1679,-0.1686,-0.1721,-0.1689,-0.1689,-0.1683,-0.1744,-0.1612,-0.1602,-0.1724,-0.1725,-0.1725,-0.1745,0,-0.111,-0.1193,-0.1245,-0.1319,-0.1364,-0.1415,-0.1461,-0.151,-0.1554,-0.1597,-0.1618,-0.1665,-0.1665,-0.1687,-0.1696,-0.1725,-0.1728,-0.1716,-0.1718,-0.1718,-0.1583,-0.16,-0.1727,-0.1746,-0.1747,-0.1747,-0.1748,0,-0.1129,-0.1183,-0.126,-0.1341,-0.1364,-0.1412,-0.1473,-0.1519,-0.158,-0.1612,-0.1645,-0.1677,-0.1711,-0.1706,-0.1737,-0.1733,-0.174,-0.1748,-0.1748,-0.1607,-0.1588,-0.1697,-0.1752,-0.1752,-0.1751,-0.1751,-0.1751,0,-0.1081,-0.1188,-0.1245,-0.1279,-0.1379,-0.1411,-0.1455,-0.152,-0.1557,-0.1622,-0.1661,-0.1694,-0.1731,-0.1737,-0.1757,-0.176,-0.178,-0.1782,-0.1661,-0.1653,-0.1751,-0.1747,-0.1787,-0.1787,-0.1787,-0.1787,-0.1787,0,-0.1073,-0.112,-0.1231,-0.1262,-0.1311,-0.1387,-0.1437,-0.1481,-0.1557,-0.1598,-0.1662,-0.1695,-0.1744,-0.1766,-0.1766,-0.171,-0.1782,-0.1653,-0.1641,-0.177,-0.1768,-0.1754,-0.175,-0.1788,-0.1788,-0.1787,-0.1787,0,-0.1017,-0.1096,-0.1163,-0.1268,-0.1296,-0.1329,-0.1424,-0.1456,-0.1538,-0.1598,-0.1626,-0.1713,-0.1725,-0.1746,-0.1765,-0.171,-0.1678,-0.164,-0.1777,-0.1774,-0.155,-0.1548,-0.1507,-0.1502,-0.1498,-0.1495,-0.1492,0,-0.0994,-0.1027,-0.1144,-0.1175,-0.1228,-0.129,-0.1327,-0.1425,-0.1467,-0.1591,-0.1612,-0.167,-0.1705,-0.1618,-0.1649,-0.1604,-0.1584,-0.1566,-0.1548,-0.1524,-0.1518,-0.1522,-0.1525,-0.1486,-0.1485,-0.1484,-0.1483,0,-0.0939,-0.0993,-0.1048,-0.1108,-0.1163,-0.1213,-0.1282,-0.1307,-0.1419,-0.152,-0.1546,-0.1547,-0.1552,-0.1536,-0.1501,-0.1476,-0.1575,-0.1524,-0.1532,-0.1515,-0.1498,-0.1497,-0.1505,-0.1469,-0.1471,-0.1472,-0.1473,0,-0.0893,-0.0912,-0.0982,-0.1025,-0.1085,-0.1112,-0.1166,-0.1216,-0.1268,-0.1416,-0.142,-0.1473,-0.1545,-0.1469,-0.1445,-0.1392,-0.1371,-0.1333,-0.1351,-0.1367,-0.1305,-0.1263,-0.1138,0,0,0,0,0,-0.084,-0.0849,-0.0885,-0.0933,-0.0987,-0.1017,-0.112,-0.1184,-0.1309,-0.1287,-0.1348,-0.1342,-0.1309,-0.1338,-0.1248,-0.1366,-0.1369,-0.1257,-0.1333,-0.1392,-0.1408,-0.1345,0,0,0,0,0,0,-0.0804,-0.0838,-0.0854,-0.0838,-0.0844,-0.0894,-0.0956,-0.1049,-0.1045,-0.1173,-0.1154,-0.1247,-0.1222,-0.1321,-0.1212,-0.1217,-0.1235,-0.1292,-0.1288,-0.1383,-0.1398,-0.1411,-0.1351,0,0,0,0,0]},{"header":{"parameterUnit":"m.s-1","parameterCategory":2,"la1":30.2991,"la2":30.254,"lo1":-89.0895,"lo2":-89.0444,"dy":0.0017,"dx":0.0017,"nx":28,"ny":28,"refTime":"2025-08-17T09:00:00:Z","depth":"4","parameterNumber":3,"parameterNumberName":"V-component_of_CURRENTS"},"data":[0,0,0,0,0,0,0,0,0,0,0,0,0,0,0,0,0,0,0,0,0,0,0,0,0,0,0,0,0,0,0,0,0,0,0,0,0,0,0,0,0,0,0,0,0,0,0,0,0,0,0,0,0,0,0,0,0,0,-0.0205,-0.0205,0,-0.0164,-0.0163,-0.0163,-0.0129,-0.0129,-0.0129,-0.0128,-0.0077,-0.0076,-0.0075,0,0,0,0,0,0,0,0,0,0,0,0,0,-0.0208,-0.0208,-0.0205,-0.0205,-0.0204,-0.0164,-0.0163,-0.0163,-0.0129,-0.0129,-0.0128,-0.0128,-0.0078,-0.0077,-0.0075,0,0,0,0,0,0,0,0,0,0,0,0,0,-0.0191,-0.0209,-0.0205,-0.0183,-0.0181,-0.0164,-0.0163,-0.0162,-0.0129,-0.0129,-0.0128,-0.0128,-0.0078,-0.0077,-0.0075,-0.0075,0,0,-0.007,-0.007,0,0,0,0,0,0,0,0,-0.0192,-0.0191,-0.0187,-0.0185,-0.0182,-0.0151,-0.0145,-0.0133,-0.0129,-0.0148,-0.0128,-0.0128,-0.0102,-0.0098,-0.0091,-0.0072,-0.007,-0.007,-0.0069,-0.0068,-0.0068,0,0,0,0,0,0,0,-0.0193,-0.0192,-0.0189,-0.0186,-0.0183,-0.0159,-0.0156,-0.0143,-0.0128,-0.0147,-0.0144,-0.014,-0.01,-0.0093,-0.009,-0.0069,-0.007,-0.0069,-0.0068,-0.0067,-0.0069,-0.007,0,0,0,0,0,0,-0.0202,-0.0193,-0.019,-0.0187,-0.0186,-0.0159,-0.0156,-0.0161,-0.0128,-0.0123,-0.0141,-0.0139,-0.0096,-0.0092,-0.0088,-0.01,-0.0068,-0.0067,-0.0066,-0.0068,-0.0069,-0.007,0,0,0,0,0,0,-0.0202,-0.0202,-0.0192,-0.0189,-0.0186,-0.016,-0.0166,-0.0161,-0.0153,-0.0124,-0.0118,-0.0138,-0.0095,-0.009,-0.0081,-0.0097,-0.0066,-0.0065,-0.0067,-0.0068,-0.007,-0.0115,0,0,0,0,0,0,-0.0203,-0.0203,-0.0212,-0.019,-0.0186,-0.0188,-0.0166,-0.016,-0.0152,-0.0149,-0.012,-0.0114,-0.0094,-0.0083,-0.0079,-0.0094,-0.0064,-0.0065,-0.0067,-0.0069,-0.0112,-0.0118,-0.0123,0,0,0,0,0,-0.0203,-0.0216,-0.0213,-0.0212,-0.0199,-0.0189,-0.0185,-0.0164,-0.0152,-0.0154,-0.0134,-0.0115,-0.0092,-0.0082,-0.0077,-0.0093,-0.0064,-0.0067,-0.0069,-0.011,-0.0117,-0.0123,0,0,0,0,0,0,-0.0218,-0.0213,-0.0209,-0.0219,-0.0209,-0.0183,-0.0181,-0.0168,-0.0154,-0.0151,-0.0121,-0.0115,-0.0114,-0.01,-0.009,-0.0101,-0.0078,-0.008,-0.0111,-0.0117,-0.0123,-0.0124,-0.0062,0,0,0,0,0,-0.0228,-0.0239,-0.0225,-0.0234,-0.0229,-0.0207,-0.02,-0.0189,-0.0171,-0.0164,-0.0145,-0.0129,-0.0121,-0.0115,-0.0103,-0.0106,-0.006,-0.0116,-0.0121,-0.0126,-0.0125,-0.007,-0.0069,-0.0077,-0.0077,-0.0077,0,0,-0.0238,-0.0235,-0.0241,-0.0238,-0.0226,-0.023,-0.0202,-0.0196,-0.0202,-0.0162,-0.0162,-0.0143,-0.0125,-0.0128,-0.0128,-0.0118,-0.0098,-0.0129,-0.0132,-0.0129,-0.0072,-0.007,-0.0069,-0.0079,-0.0079,-0.0078,0,0,-0.0257,-0.0257,-0.0271,-0.0268,-0.0258,-0.0246,-0.0248,-0.0229,-0.0222,-0.0221,-0.0196,-0.0187,-0.0174,-0.0163,-0.0156,-0.0185,-0.0125,-0.0186,-0.0214,-0.016,-0.0158,-0.0156,-0.0085,-0.0076,-0.0191,-0.0191,-0.0191,0,-0.0267,-0.0285,-0.0272,-0.0283,-0.0284,-0.0258,-0.0271,-0.0263,-0.0245,-0.024,-0.023,-0.0204,-0.0192,-0.0188,-0.0204,-0.0196,-0.0144,-0.019,-0.0165,-0.0162,-0.0159,-0.0086,-0.0075,-0.0194,-0.0193,-0.0193,-0.0193,0,-0.0295,-0.0311,-0.0316,-0.0326,-0.0327,-0.0332,-0.0322,-0.0319,-0.0307,-0.0294,-0.0285,-0.0261,-0.0242,-0.0246,-0.0235,-0.0219,-0.0181,-0.0173,-0.0144,-0.016,-0.0083,-0.0071,-0.0197,-0.0196,-0.0196,-0.0195,0,0,-0.0309,-0.0334,-0.0336,-0.0352,-0.0351,-0.0354,-0.0364,-0.036,-0.036,-0.0343,-0.0334,-0.0329,-0.0301,-0.0292,-0.0272,-0.0238,-0.0178,-0.0203,-0.0199,-0.0123,-0.0034,-0.0057,-0.0045,-0.0157,-0.0155,-0.0154,0.0017,0,-0.0333,-0.037,-0.0374,-0.0407,-0.0422,-0.0409,-0.0421,-0.0415,-0.0398,-0.0382,-0.0352,-0.0337,-0.0323,-0.031,-0.0274,-0.0199,-0.0151,-0.0223,-0.0037,-0.0031,-0.0043,-0.0035,-0.015,0.0026,0.0029,0.0031,0.0032,0,-0.0357,-0.038,-0.0421,-0.045,-0.0455,-0.0471,-0.0474,-0.048,-0.0451,-0.0435,-0.0404,-0.0366,-0.0318,-0.0305,-0.0169,-0.021,-0.0128,-0.0069,-0.006,-0.0059,-0.0034,0.0042,0.0054,0.0053,0.0051,0.005,0.0048,0,-0.0372,-0.0412,-0.0448,-0.0459,-0.0485,-0.05,-0.0508,-0.0496,-0.0498,-0.0459,-0.0438,-0.0372,-0.0326,-0.0224,-0.0113,-0.0124,0.0048,0.0053,0.0116,0.0117,0.011,0.0106,0.0155,0.0155,0.0155,0.0154,0.0154,0,-0.0393,-0.0423,-0.0462,-0.0481,-0.0522,-0.0527,-0.0553,-0.0547,-0.053,-0.0522,-0.0463,-0.0425,-0.0303,-0.0196,-0.0095,0.0048,0.0074,0.012,0.0156,0.0087,0.0078,0.012,0.0113,0.0161,0.0159,0.0158,0.0157,0,-0.0402,-0.0429,-0.0475,-0.0516,-0.0532,-0.056,-0.059,-0.0601,-0.0575,-0.0555,-0.054,-0.0441,-0.0297,-0.0171,0.0009,0.0072,0.0205,0.0248,0.0181,0.0208,0.0243,0.0232,0.0355,0.0356,0.0356,0.0357,0.0357,0,-0.0412,-0.0435,-0.0499,-0.0534,-0.0558,-0.0599,-0.0624,-0.0625,-0.0628,-0.0561,-0.0545,-0.0413,-0.0334,-0.0077,0.0039,0.0245,0.0252,0.0328,0.0264,0.024,0.0263,0.0251,0.024,0.0358,0.0358,0.0358,0.0358,0,-0.0425,-0.045,-0.0488,-0.0556,-0.0602,-0.0646,-0.0677,-0.068,-0.0661,-0.0636,-0.0525,-0.0399,-0.0239,-0.0067,0.0083,0.0219,0.0279,0.0333,0.0333,0.0273,0.0244,0.0264,0.0252,0.0359,0.0359,0.0359,0.0359,0,-0.0433,-0.0465,-0.0517,-0.0575,-0.0635,-0.0676,-0.0692,-0.0676,-0.0668,-0.059,-0.0548,-0.0377,-0.0276,-0.0078,0.0061,0.0188,0.0214,0.0241,0.0246,0.0246,0.0135,0.0077,0.018,0,0,0,0,0,-0.0437,-0.0475,-0.0532,-0.0599,-0.0656,-0.0688,-0.0719,-0.0723,-0.0698,-0.0621,-0.0583,-0.0431,-0.021,-0.011,0.0019,0.0049,0.0216,0.0199,0.0244,0.0368,0.0366,0.0249,0,0,0,0,0,0,-0.0444,-0.0497,-0.0529,-0.0603,-0.0648,-0.0705,-0.0726,-0.0712,-0.0662,-0.0613,-0.0487,-0.0413,-0.0195,-0.0275,0.0021,0.0059,0.01,0.0307,0.0309,0.0369,0.0367,0.0366,0.0245,0,0,0,0,0]}]]